FW9843 Weather Reports


time (UTC)temp
C
wind
direction
speed
KPH
gust
KPH
rain 1hr
cm
rain 24hr
cm
rain mn
cm
humidity
%
barometer
mb
20260906105858 22 143 0.0 0.0 0.00 0.00 0.00 90 1012.1
20260906105353 22 143 0.0 0.0 0.00 0.00 0.00 90 1012.1
20260906104849 22 143 0.0 0.0 0.00 0.00 0.00 90 1012.2
20260906104345 22 143 0.0 0.0 0.00 0.00 0.00 90 1012.1
20260906103841 22 143 0.0 0.0 0.00 0.00 0.00 90 1012.1
20260906103332 22 143 0.0 0.0 0.00 0.00 0.00 90 1012.2
20260906102834 22 143 0.0 0.0 0.00 0.00 0.00 90 1012.2
20260906102320 22 143 0.0 0.0 0.00 0.00 0.00 90 1012.1
20260906102058 22 143 0.0 0.0 0.00 0.00 0.00 90 1012.2
20260906101313 22 143 0.0 0.0 0.00 0.00 0.00 90 1012.2
20260906101049 22 143 0.0 0.0 0.00 0.00 0.00 90 1012.2
20260906100308 22 143 0.0 0.0 0.00 0.00 0.00 90 1012.1
20260906095804 22 143 0.0 0.0 0.00 0.00 0.00 90 1012.2
20260906095305 22 143 0.0 0.0 0.00 0.00 0.00 90 1012.3
20260906094804 22 143 0.0 0.0 0.00 0.00 0.00 90 1012.3
20260906094306 22 143 0.0 0.0 0.00 0.00 0.00 90 1012.3
20260906093806 22 143 0.0 0.0 0.00 0.00 0.00 91 1012.3
20260906093307 22 143 0.0 0.0 0.00 0.00 0.00 90 1012.3
20260906092805 22 143 0.0 0.0 0.00 0.00 0.00 90 1012.4
20260906092306 22 143 0.0 0.0 0.00 0.00 0.00 90 1012.3
20260906091807 22 143 0.0 0.0 0.00 0.00 0.00 90 1012.3
20260906091543 22 143 0.0 0.0 0.00 0.00 0.00 90 1012.3
20260906090805 22 143 0.0 0.0 0.00 0.00 0.00 90 1012.2
20260906090304 22 143 0.0 0.0 0.00 0.00 0.00 90 1012.2
20260906085805 22 143 0.0 0.0 0.00 0.00 0.00 90 1012.2
20260906085307 22 143 0.0 0.0 0.00 0.00 0.00 90 1012.1
20260906085109 22 143 0.0 0.0 0.00 0.00 0.00 90 1012.1
20260906084303 22 143 0.0 0.0 0.00 0.00 0.00 90 1012.1
20260906083803 22 143 0.0 0.0 0.00 0.00 0.00 90 1012.0
20260906083302 22 143 0.0 0.0 0.00 0.00 0.00 90 1012.1
20260906082755 22 143 0.0 0.0 0.00 0.00 0.00 90 1012.1
20260906082251 22 143 0.0 0.0 0.00 0.00 0.00 91 1012.0
20260906081741 22 143 0.0 0.0 0.00 0.00 0.00 90 1012.0
20260906081237 22 143 0.0 0.0 0.00 0.00 0.00 90 1012.0
20260906080732 22 143 0.0 0.0 0.00 0.00 0.00 90 1012.0
20260906080229 22 143 0.0 0.0 0.00 0.00 0.00 90 1012.1
20260906075727 22 143 0.0 0.0 0.00 0.00 0.00 90 1012.0
20260906075220 22 143 0.0 0.0 0.00 0.00 0.00 90 1011.9
20260906074716 22 143 0.0 0.0 0.00 0.00 0.00 90 1012.1
20260906074213 22 143 0.0 0.0 0.00 0.00 0.00 90 1012.0
20260906073708 22 143 0.0 0.0 0.00 0.00 0.00 90 1012.1
20260906073206 22 143 0.0 0.0 0.00 0.00 0.00 90 1012.1
20260906072703 22 143 0.0 0.0 0.00 0.00 0.00 90 1012.0
20260906072446 22 143 0.0 0.0 0.00 0.00 0.00 90 1012.1
20260906071704 22 143 0.0 0.0 0.00 0.00 0.00 90 1011.9
20260906071152 22 143 0.0 0.0 0.00 0.00 0.00 90 1011.9
20260906070649 22 143 0.0 0.0 0.00 0.00 0.00 90 1011.9
20260906070137 22 143 0.0 0.0 0.00 0.00 0.00 90 1011.8
20260906065632 22 143 0.0 0.0 0.00 0.00 0.00 90 1011.9
20260906065130 22 143 0.0 0.0 0.00 0.00 0.00 90 1011.9
20260906064632 22 143 0.0 0.0 0.00 0.00 0.00 89 1012.0
20260906064130 22 143 0.0 0.0 0.00 0.00 0.00 89 1012.1
20260906063632 22 143 0.0 0.0 0.00 0.00 0.00 89 1012.2
20260906063126 22 143 0.0 0.0 0.00 0.00 0.00 89 1012.2
20260906062622 23 143 0.0 0.0 0.00 0.00 0.00 89 1012.4
20260906062112 22 143 0.0 0.0 0.00 0.00 0.00 89 1012.5
20260906061631 23 143 0.0 0.0 0.00 0.00 0.00 89 1012.6
20260906060557 23 143 0.0 0.0 0.00 0.00 0.00 89 1012.7
20260906060053 23 143 0.0 1.6 0.00 0.00 0.00 89 1012.6
20260906055549 23 143 0.0 1.6 0.00 0.00 0.00 89 1012.6
20260906055047 23 138 0.0 1.6 0.00 0.00 0.00 89 1012.8
20260906054533 23 138 0.0 1.6 0.00 0.00 0.00 89 1012.9
20260906054033 23 138 0.0 0.0 0.00 0.00 0.00 89 1012.9
20260906053525 23 138 0.0 1.6 0.00 0.00 0.00 89 1013.0
20260906053021 23 138 0.0 1.6 0.00 0.00 0.00 89 1013.0
20260906052517 23 140 0.0 0.0 0.00 0.00 0.00 89 1012.9
20260906052007 23 140 0.0 0.0 0.00 0.00 0.00 89 1012.9
20260906051505 23 140 0.0 1.6 0.00 0.00 0.00 89 1012.8
20260906051003 23 140 0.0 1.6 0.00 0.00 0.00 89 1012.8
20260906050503 23 138 0.0 1.6 0.00 0.00 0.00 89 1012.8
20260906050002 23 138 0.0 3.2 0.00 0.00 0.00 89 1012.8
20260906045505 23 150 0.0 3.2 0.00 0.00 0.00 89 1012.8
20260906045244 23 108 0.0 1.6 0.00 0.00 0.00 89 1012.7
20260906044502 23 108 0.0 1.6 0.00 0.00 0.00 89 1012.7
20260906044006 23 108 0.0 1.6 0.00 0.00 0.00 88 1012.7
20260906043506 23 108 0.0 0.0 0.00 0.00 0.00 88 1012.6
20260906043257 23 108 0.0 1.6 0.00 0.00 0.00 88 1012.6
20260906042505 23 108 0.0 1.6 0.00 0.00 0.00 88 1012.6
20260906042007 23 108 0.0 1.6 0.00 0.00 0.00 88 1012.6
20260906041506 23 108 0.0 1.6 0.00 0.00 0.00 88 1012.6
20260906041007 23 108 0.0 1.6 0.00 0.00 0.00 88 1012.5
20260906040550 23 108 0.0 1.6 0.00 0.00 0.00 88 1012.5
20260906040535 23 108 0.0 1.6 0.00 0.00 0.00 88 1012.6
20260906035501 23 108 0.0 0.0 0.00 0.00 0.00 88 1012.6
20260906035003 23 108 0.0 0.0 0.00 0.00 0.00 88 1012.5
20260906034546 23 108 0.0 3.2 0.00 0.00 0.00 88 1012.6
20260906034530 23 108 0.0 3.2 0.00 0.00 0.00 88 1012.5
20260906033443 23 108 0.0 1.6 0.00 0.00 0.00 88 1012.7
20260906032939 23 108 0.0 0.0 0.00 0.00 0.00 87 1012.8
20260906032431 23 108 0.0 0.0 0.00 0.00 0.00 87 1012.8
20260906031931 23 108 0.0 0.0 0.00 0.00 0.00 87 1012.8
20260906031432 23 108 0.0 0.0 0.00 0.00 0.00 87 1013.0
20260906030931 23 108 0.0 1.6 0.00 0.00 0.00 87 1013.0
20260906030432 23 108 0.0 1.6 0.00 0.00 0.00 87 1013.1
20260906025932 23 108 0.0 1.6 0.00 0.00 0.00 86 1013.4
20260906025435 23 108 0.0 1.6 0.00 0.00 0.00 86 1013.2
20260906024933 23 108 0.0 1.6 0.00 0.00 0.00 86 1013.1
20260906024432 23 107 0.0 0.0 0.00 0.00 0.00 86 1013.2
20260906023931 23 107 0.0 0.0 0.00 0.00 0.00 86 1013.2
20260906023430 24 107 0.0 0.0 0.00 0.00 0.00 86 1013.5
20260906022933 24 107 0.0 0.0 0.00 0.00 0.00 85 1013.5
20260906022433 24 107 0.0 0.0 0.00 0.00 0.00 85 1013.6
20260906021923 24 107 0.0 0.0 0.00 0.00 0.00 85 1013.7
20260906021417 24 107 0.0 0.0 0.00 0.00 0.00 85 1013.7
20260906020913 24 107 0.0 1.6 0.00 0.00 0.00 85 1013.6
20260906020410 24 107 0.0 1.6 0.00 0.00 0.00 85 1013.8
20260906015907 24 108 1.6 1.6 0.00 0.00 0.00 85 1013.7
20260906015405 24 111 0.0 1.6 0.00 0.00 0.00 85 1014.0
20260906014906 24 113 0.0 1.6 0.00 0.00 0.00 85 1014.0
20260906014407 25 113 0.0 0.0 0.00 0.00 0.00 84 1013.9
20260906014143 25 113 0.0 0.0 0.00 0.00 0.00 84 1013.8
20260906013407 25 113 0.0 1.6 0.00 0.00 0.00 84 1013.7
20260906012908 25 113 0.0 3.2 0.00 0.00 0.00 83 1013.7
20260906012349 25 107 0.0 3.2 0.00 0.00 0.00 82 1013.6
20260906011844 25 100 0.0 1.6 0.00 0.00 0.00 81 1013.2
20260906011341 25 99 0.0 1.6 0.00 0.00 0.00 81 1013.1
20260906010833 25 313 0.0 0.0 0.00 0.00 0.00 81 1013.0
20260906010333 25 313 0.0 0.0 0.00 0.00 0.00 80 1013.0
20260906005832 25 313 0.0 0.0 0.00 0.00 0.00 79 1013.1
20260906005330 25 313 0.0 0.0 0.00 0.00 0.00 79 1013.4
20260906004833 25 313 0.0 1.6 0.00 0.00 0.00 79 1013.4
20260906004331 25 313 0.0 1.6 0.00 0.00 0.00 79 1013.5
20260906003831 25 313 0.0 0.0 0.00 0.00 0.00 79 1013.6
20260906003332 25 313 0.0 1.6 0.00 0.00 0.00 80 1013.7
20260906002832 25 313 0.0 3.2 0.00 0.00 0.00 80 1013.7
20260906002613 25 313 1.6 3.2 0.00 0.00 0.00 80 1013.6
20260906001821 26 313 0.0 0.0 0.00 0.00 0.00 79 1013.5
20260906001600 26 313 0.0 1.6 0.00 0.00 0.00 79 1013.4
20260906000815 26 313 0.0 1.6 0.00 0.00 0.00 79 1013.1
20260906000304 26 313 0.0 1.6 0.00 0.00 0.00 78 1012.7
20260905235800 25 313 0.0 1.6 0.00 0.00 0.00 80 1012.4
20260905235249 25 313 0.0 0.0 0.00 0.00 0.00 80 1011.9
20260905235030 26 313 0.0 0.0 0.00 0.00 0.00 78 1011.6
20260905234311 26 313 0.0 3.2 0.00 0.00 0.00 74 1011.4
20260905234258 26 313 0.0 3.2 0.00 0.00 0.00 76 1011.4
20260905233232 27 340 0.0 1.6 0.00 0.00 0.00 75 1011.9
20260905232728 27 29 0.0 4.8 0.00 0.00 0.00 75 1012.2
20260905232224 27 30 0.0 4.8 0.00 0.00 0.00 74 1012.5
20260905231720 27 56 0.0 4.8 0.00 0.00 0.00 72 1012.7
20260905231501 28 262 0.0 4.8 0.00 0.00 0.00 65 1012.7
20260905230719 28 319 0.0 3.2 0.00 0.00 0.00 65 1012.3
20260905230206 28 319 0.0 0.0 0.00 0.00 0.00 67 1011.9
20260905225704 28 319 0.0 0.0 0.00 0.00 0.00 67 1011.8
20260905225205 28 319 0.0 3.2 0.00 0.00 0.00 66 1011.6
20260905224707 28 319 0.0 3.2 0.00 0.00 0.00 65 1011.8
20260905224453 28 306 1.6 4.8 0.00 0.00 0.00 65 1011.5
20260905223741 30 254 3.2 9.7 0.00 0.00 0.00 60 1011.9
20260905223731 28 346 0.0 4.8 0.00 0.00 0.00 64 1011.7
20260905222703 30 323 3.2 9.7 0.00 0.00 0.00 60 1011.9
20260905222202 30 313 1.6 4.8 0.00 0.00 0.00 60 1011.9
20260905221658 31 290 0.0 3.2 0.00 0.00 0.00 61 1011.6
20260905221147 31 246 0.0 3.2 0.00 0.00 0.00 60 1011.4
20260905220643 31 292 0.0 4.8 0.00 0.00 0.00 59 1011.2
20260905220138 31 161 1.6 4.8 0.00 0.00 0.00 59 1011.5
20260905215634 32 252 1.6 4.8 0.00 0.00 0.00 56 1011.4
20260905215131 33 132 1.6 3.2 0.00 0.00 0.00 53 1011.4
20260905214633 34 61 0.0 0.0 0.00 0.00 0.00 50 1010.9
20260905214129 34 61 0.0 0.0 0.00 0.00 0.00 51 1010.8
20260905213618 33 61 0.0 1.6 0.00 0.00 0.00 53 1010.9
20260905213113 33 61 0.0 1.6 0.00 0.00 0.00 56 1010.8
20260905212604 34 61 0.0 0.0 0.00 0.00 0.00 52 1010.9
20260905212104 35 61 0.0 1.6 0.00 0.00 0.00 51 1010.7
20260905211602 35 61 0.0 3.2 0.00 0.00 0.00 48 1010.8
20260905211052 35 335 0.0 3.2 0.00 0.00 0.00 48 1010.9
20260905210541 35 331 1.6 3.2 0.00 0.00 0.00 47 1010.9
20260905210036 35 17 0.0 1.6 0.00 0.00 0.00 48 1010.9
20260905205532 35 355 0.0 1.6 0.00 0.00 0.00 52 1011.0
20260905205316 34 355 0.0 1.6 0.00 0.00 0.00 50 1011.2
20260905204533 34 355 0.0 0.0 0.00 0.00 0.00 52 1011.4
20260905204035 35 355 0.0 0.0 0.00 0.00 0.00 50 1011.4
20260905203531 34 355 0.0 1.6 0.00 0.00 0.00 50 1011.5
20260905203031 35 355 0.0 1.6 0.00 0.00 0.00 50 1011.7
20260905202818 35 355 0.0 3.2 0.00 0.00 0.00 47 1011.7
20260905202032 35 352 1.6 3.2 0.00 0.00 0.00 46 1011.9
20260905201531 36 5 0.0 1.6 0.00 0.00 0.00 45 1011.9
20260905201032 36 5 0.0 4.8 0.00 0.00 0.00 45 1011.9
20260905200534 36 5 1.6 4.8 0.00 0.00 0.00 45 1011.8
20260905200033 36 28 0.0 1.6 0.00 0.00 0.00 46 1011.9
20260905195821 35 28 0.0 3.2 0.00 0.00 0.00 48 1011.9
20260905195030 36 304 0.0 3.2 0.00 0.00 0.00 46 1011.8
20260905194531 37 5 0.0 4.8 0.00 0.00 0.00 46 1011.8
20260905194322 36 341 1.6 4.8 0.00 0.00 0.00 45 1011.9
20260905193521 37 323 1.6 4.8 0.00 0.00 0.00 45 1012.0
20260905193018 36 317 0.0 3.2 0.00 0.00 0.00 49 1012.0
20260905192514 36 337 0.0 3.2 0.00 0.00 0.00 47 1012.0
20260905192021 35 337 1.6 3.2 0.00 0.00 0.00 49 1012.0
20260905191507 36 284 0.0 6.4 0.00 0.00 0.00 48 1012.1
20260905191249 37 309 1.6 6.4 0.00 0.00 0.00 45 1012.1
20260905190506 37 327 3.2 6.4 0.00 0.00 0.00 43 1012.2
20260905190007 37 302 1.6 4.8 0.00 0.00 0.00 45 1012.3
20260905185504 37 306 3.2 4.8 0.00 0.00 0.00 44 1012.4
20260905185005 38 345 0.0 3.2 0.00 0.00 0.00 47 1012.4
20260905184530 36 270 0.0 4.8 0.00 0.00 0.00 47 1012.5
20260905183500 34 294 0.0 3.2 0.00 0.00 0.00 53 1012.6
20260905182957 35 294 0.0 3.2 0.00 0.00 0.00 49 1012.7
20260905182454 37 306 0.0 4.8 0.00 0.00 0.00 49 1012.8
20260905182016 36 321 0.0 3.2 0.00 0.00 0.00 47 1013.0
20260905182005 36 186 3.2 4.8 0.00 0.00 0.00 46 1012.8
20260905180932 36 291 0.0 3.2 0.00 0.00 0.00 48 1013.0
20260905180717 35 113 0.0 14.5 0.00 0.00 0.00 48 1013.1
20260905175932 35 332 1.6 14.5 0.00 0.00 0.00 50 1013.2
20260905175432 35 295 1.6 6.4 0.00 0.00 0.00 51 1013.4
20260905174933 36 308 3.2 3.2 0.00 0.00 0.00 51 1013.4
20260905174432 35 63 0.0 3.2 0.00 0.00 0.00 49 1013.2
20260905173931 35 154 0.0 3.2 0.00 0.00 0.00 49 1013.3
20260905173431 35 300 0.0 3.2 0.00 0.00 0.00 51 1013.3
20260905172931 35 281 0.0 3.2 0.00 0.00 0.00 52 1013.3
20260905172417 35 314 0.0 3.2 0.00 0.00 0.00 55 1013.4
20260905171910 34 258 0.0 3.2 0.00 0.00 0.00 53 1013.5
20260905171407 34 322 0.0 3.2 0.00 0.00 0.00 53 1013.5
20260905170904 35 222 0.0 1.6 0.00 0.00 0.00 53 1013.6
20260905170405 34 242 0.0 6.4 0.00 0.00 0.00 53 1013.6
20260905165904 34 242 3.2 6.4 0.00 0.00 0.00 52 1013.7
20260905165403 34 150 0.0 3.2 0.00 0.00 0.00 53 1013.8
20260905164906 33 65 0.0 3.2 0.00 0.00 0.00 57 1013.9
20260905164404 33 65 0.0 6.4 0.00 0.00 0.00 54 1014.0
20260905164152 34 333 1.6 6.4 0.00 0.00 0.00 55 1014.1
20260905163404 34 304 1.6 6.4 0.00 0.00 0.00 55 1014.2
20260905162903 33 310 0.0 6.4 0.00 0.00 0.00 56 1014.3
20260905162402 33 352 0.0 4.8 0.00 0.00 0.00 58 1014.3
20260905161904 33 136 1.6 6.4 0.00 0.00 0.00 58 1014.4
20260905161406 33 227 3.2 6.4 0.00 0.00 0.00 58 1014.3
20260905161155 33 348 0.0 3.2 0.00 0.00 0.00 59 1014.4
20260905160405 32 315 0.0 3.2 0.00 0.00 0.00 60 1014.4
20260905160211 32 86 1.6 3.2 0.00 0.00 0.00 58 1014.4
20260905155404 33 177 0.0 3.2 0.00 0.00 0.00 59 1014.5
20260905154854 32 302 0.0 3.2 0.00 0.00 0.00 60 1014.5
20260905154351 32 218 3.2 3.2 0.00 0.00 0.00 60 1014.5
20260905153847 32 249 0.0 3.2 0.00 0.00 0.00 61 1014.6
20260905153343 32 335 1.6 4.8 0.00 0.00 0.00 61 1014.7
20260905152831 32 292 1.6 4.8 0.00 0.00 0.00 62 1014.9
20260905152331 32 46 1.6 4.8 0.00 0.00 0.00 61 1014.9
20260905151831 32 13 1.6 4.8 0.00 0.00 0.00 62 1015.0
20260905151410 31 69 1.6 6.4 0.00 0.00 0.00 64 1015.0
20260905151353 32 312 1.6 4.8 0.00 0.00 0.00 64 1014.9
20260905150319 31 295 0.0 6.4 0.00 0.00 0.00 63 1014.9
20260905145840 31 278 1.6 3.2 0.00 0.00 0.00 64 1015.1
20260905145829 31 5 0.0 3.2 0.00 0.00 0.00 63 1015.1
20260905145050 31 132 1.6 3.2 0.00 0.00 0.00 63 1015.1
20260905144302 31 294 1.6 4.8 0.00 0.00 0.00 65 1015.1
20260905143806 30 26 0.0 4.8 0.00 0.00 0.00 67 1015.1
20260905143307 30 323 0.0 3.2 0.00 0.00 0.00 67 1015.1
20260905142805 30 236 0.0 3.2 0.00 0.00 0.00 70 1015.1
20260905142306 30 296 0.0 1.6 0.00 0.00 0.00 70 1015.1
20260905141805 30 296 0.0 3.2 0.00 0.00 0.00 71 1015.1
20260905141306 29 302 0.0 3.2 0.00 0.00 0.00 71 1015.1
20260905141053 29 37 0.0 3.2 0.00 0.00 0.00 72 1015.1
20260905140305 29 347 0.0 4.8 0.00 0.00 0.00 72 1015.1
20260905135805 28 302 1.6 4.8 0.00 0.00 0.00 75 1015.1
20260905135307 28 298 0.0 4.8 0.00 0.00 0.00 76 1015.1
20260905134804 28 328 0.0 3.2 0.00 0.00 0.00 78 1015.3
20260905134302 27 338 0.0 3.2 0.00 0.00 0.00 80 1015.3
20260905133805 27 316 1.6 3.2 0.00 0.00 0.00 81 1015.3
20260905133303 27 300 0.0 3.2 0.00 0.00 0.00 82 1015.4
20260905132805 26 300 1.6 3.2 0.00 0.00 0.00 84 1015.4
20260905132409 26 335 0.0 3.2 0.00 0.00 0.00 85 1015.3
20260905132349 26 335 0.0 3.2 0.00 0.00 0.00 85 1015.3
20260905131254 25 287 0.0 1.6 0.00 0.00 0.00 87 1015.4
20260905130741 25 13 0.0 1.6 0.00 0.00 0.00 88 1015.4
20260905130237 25 306 0.0 1.6 0.00 0.00 0.00 89 1015.5
20260905125737 25 337 0.0 0.0 0.00 0.00 0.00 90 1015.5
20260905125233 24 337 0.0 1.6 0.00 0.00 0.00 90 1015.4
20260905124730 24 337 0.0 3.2 0.00 0.00 0.00 91 1015.4
20260905124233 24 338 0.0 3.2 0.00 0.00 0.00 91 1015.4
20260905123727 23 303 0.0 0.0 0.00 0.00 0.00 92 1015.3
20260905123224 23 303 0.0 0.0 0.00 0.00 0.00 92 1015.3
20260905122713 23 303 0.0 0.0 0.00 0.00 0.00 92 1015.3
20260905122209 22 303 0.0 0.0 0.00 0.00 0.00 92 1015.3
20260905121708 22 303 0.0 0.0 0.00 0.00 0.00 92 1015.2
20260905121240 22 303 0.0 0.0 0.00 0.00 0.00 92 1015.1
20260905121226 22 303 0.0 0.0 0.00 0.00 0.00 92 1015.1
20260905120214 22 303 0.0 1.6 0.00 0.00 0.00 93 1014.9
20260905115945 22 303 0.0 1.6 0.00 0.00 0.00 93 1014.9
20260905115241 22 303 0.0 0.0 0.00 0.00 0.00 93 1014.9
20260905115225 22 303 0.0 0.0 0.00 0.00 0.00 93 1014.9
20260905114441 22 303 0.0 0.0 0.00 0.00 0.00 93 1014.7
20260905113716 22 303 0.0 0.0 0.00 0.00 0.00 93 1014.7
20260905113236 22 303 0.0 0.0 0.00 0.00 0.00 93 1014.7
20260905113222 22 303 0.0 0.0 0.00 0.00 0.00 93 1014.7
20260905112155 22 303 0.0 0.0 0.00 0.00 0.00 93 1014.5
20260905111644 22 303 0.0 0.0 0.00 0.00 0.00 93 1014.6
20260905111138 22 303 0.0 0.0 0.00 0.00 0.00 92 1014.6
20260905110635 22 303 0.0 0.0 0.00 0.00 0.00 92 1014.6
20260905110132 22 303 0.0 0.0 0.00 0.00 0.00 92 1014.5